Overview Statistics Trail Chart Weather Telemetry Raw packets
 

This is the latest recevied weather packets stored in our database for station/object NY3Q. If no packets are shown the sender has not sent any weather packets the latest 10 day(s).

<< 109 110 111 112 113 114 >>
Time Temp. Humidity Pressure Rain* Wind** Luminosity Snow
1787780643 29.44° C 73% 1015.4 hPa 0 mm - 75 W/m² -
1787780338 29.44° C 74% 1015.4 hPa 0 mm - 94 W/m² -
1787780034 29.44° C 73% 1015.2 hPa 0 mm - 90 W/m² -
1787779729 30° C 72% 1015.4 hPa 0 mm - 70 W/m² -
1787779428 30° C 72% 1015.4 hPa 0 mm - 64 W/m² -
1787779123 30.56° C 71% 1015.1 hPa 0 mm - 56 W/m² -
1787778818 30.56° C 69% 1015.3 hPa 0 mm - 66 W/m² -
1787778514 31.67° C 69% 1015.1 hPa 0 mm - 100 W/m² -
1787778209 31.67° C 70% 1015 hPa 0 mm - 222 W/m² -
1787777904 32.22° C 69% 1014.9 hPa 0 mm - 254 W/m² -
1787777600 32.22° C 69% 1015.2 hPa 0 mm - 340 W/m² -
1787777295 32.22° C 68% 1015.1 hPa 0 mm - 354 W/m² -
1787776995 32.22° C 70% 1015.3 hPa 0 mm - 363 W/m² -
1787776694 32.78° C 66% 1015.4 hPa 0 mm - 351 W/m² -
1787776393 33.33° C 64% 1015.5 hPa 0 mm - 303 W/m² -
1787776090 33.89° C 51% 1015.6 hPa 0 mm - 278 W/m² -
1787775786 33.89° C 53% 1015.5 hPa 0 mm - 313 W/m² -
1787775485 33.89° C 53% 1015.5 hPa 0 mm - 261 W/m² -
1787775183 34.44° C 51% 1015.6 hPa 0 mm - 208 W/m² -
1787774878 35° C 51% 1015.8 hPa 0 mm - 215 W/m² -
1787774577 34.44° C 52% 1015.7 hPa 0 mm - 500 W/m² -
1787774277 34.44° C 51% 1015.5 hPa 0 mm - 386 W/m² -
1787773976 35° C 50% 1015.5 hPa 0 mm - 381 W/m² -
1787773675 35° C 50% 1015.7 hPa 0 mm - 431 W/m² -
1787773371 35° C 49% 1015.8 hPa 0 mm - 473 W/m² -

* Rain latest hour (hover to see other rain measurements)
** Current wind speed in m/s (hover to see current wind gust speed)